Location: Plainartige
(45.6866°N, 1.7993°E)
Time: 13:44:33
(UTC+00:00)

Envisat - Pass Details

Date: 25 January 2022
Orbit: 764 x 765 km, 98.2° (Epoch: 17 May)

Event Time Altitude Azimuth Distance (km) Brightness Sun altitude
Rises 03:16:50 0° 33° (NNE) 3,240 6.8 -42.5°
Reaches altitude 10° 03:20:44 10° 63° (ENE) 2,307 6.1 -41.8°
Maximum altitude 03:22:44 12° 87° (E) 2,151 5.9 -41.5°
Drops below altitude 10° 03:24:44 10° 110° (ESE) 2,301 5.9 -41.2°
Sets 03:28:36 0° 140° (SE) 3,220 6.5 -40.5°
